Weather History for Lufkin, TX

Change the Weather History Date:

Monday, March 12, 2012

  Actual Average Record
Temperature  
Mean Temperature 68 °F 59 °F  
Max Temperature 79 °F 70 °F 88 °F (1955)
Min Temperature 57 °F 47 °F 19 °F (1948)
Degree Days  
Heating Degree Days 0 7  
Month to date heating degree days 57 104  
Since 1 July heating degree days 1404 1738  
Cooling Degree Days 3 1  
Month to date cooling degree days 24 12  
Year to date cooling degree days 79 31  
Growing Degree Days 18 (Base 50)    
Moisture  
Dew Point 60 °F    
Average Humidity 76    
Maximum Humidity 97    
Minimum Humidity 54    
Precipitation  
Precipitation 0.00 in 0.12 in 2.33 in (1913)
Month to date precipitation 6.68 1.54  
Year to date precipitation 15.40 9.59  
Snow  
Snow 0.00 in - - ()
Month to date snowfall 0.0  
Since 1 July snowfall 0.0  
Snow Depth 0.00 in    
Sea Level Pressure  
Sea Level Pressure 30.06 in    
Wind  
Wind Speed 5 mph (SSW)    
Max Wind Speed 13 mph    
Max Gust Speed 17 mph    
Visibility 8 miles    
Events Fog    
T = Trace of Precipitation, MM = Missing Value Source: NWS Daily Summary

Daily Weather History Graph

Daily Weather History Graph

Search for Another Location

Airport:

Trip Planner

Search our weather history database for the weather conditions in past years. The results will help you decide how hot, cold, wet, or windy it might be!

Date:

Astronomy

Mar. 12, 2012 Rise Set
Actual Time 7:32 AM CDT 7:25 PM CDT
Civil Twilight 7:07 AM CDT 7:49 PM CDT
Nautical Twilight 6:39 AM CDT 8:17 PM CDT
Astronomical Twilight 6:11 AM CDT 8:46 PM CDT
Moon No Moon Rise 10:16 AM CDT (3/12)
Length of Visible Light 12h 41m
Length of Day
11h 53m
Waning Gibbous, 76% of the Moon is Illuminated
Mar 12
Waning Gibbous
Mar 14
Last Quarter
Mar 22
New
Mar 30
First Quarter
Apr 6
Full

Hourly Weather History & Observations

Time (CDT) Temp. Dew Point Humidity Pressure Visibility Wind Dir Wind Speed Gust Speed Precip Events Conditions
12:01 AM 60.8 °F 59.0 °F 94% 30.04 in 10.0 mi Calm Calm - N/A   Overcast
12:14 AM 60.8 °F 59.0 °F 94% 30.04 in 10.0 mi Calm Calm - N/A   Overcast
12:53 AM 61.0 °F 59.0 °F 93% 30.03 in 4.0 mi Calm Calm - N/A   Overcast
1:29 AM 60.8 °F 57.2 °F 88% 30.03 in 0.8 mi Calm Calm - N/A   Scattered Clouds
1:53 AM 59.0 °F 57.0 °F 93% 30.03 in 0.5 mi Calm Calm - N/A Fog Fog
2:41 AM 57.2 °F 55.4 °F 94% 30.03 in 0.5 mi Calm Calm - N/A Fog Fog
2:53 AM 57.9 °F 55.9 °F 93% 30.03 in 0.5 mi SE 3.5 mph - N/A Fog Fog
3:00 AM 57.2 °F 55.4 °F 94% 30.03 in 0.5 mi Calm Calm - N/A Fog Fog
3:16 AM 59.0 °F 57.2 °F 94% 30.03 in 1.5 mi Calm Calm - N/A   Overcast
3:33 AM 60.8 °F 57.2 °F 88% 30.03 in 3.0 mi SSW 4.6 mph - N/A   Overcast
3:44 AM 60.8 °F 57.2 °F 88% 30.03 in 9.0 mi SSW 3.5 mph - N/A   Overcast
3:53 AM 61.0 °F 59.0 °F 93% 30.02 in 7.0 mi SSW 5.8 mph - N/A   Overcast
4:18 AM 60.8 °F 59.0 °F 94% 30.02 in 1.8 mi SW 8.1 mph - N/A   Overcast
4:42 AM 60.8 °F 59.0 °F 94% 30.03 in 3.0 mi SW 6.9 mph - N/A   Overcast
4:53 AM 61.0 °F 59.0 °F 93% 30.02 in 7.0 mi SSW 4.6 mph - N/A   Overcast
5:16 AM 60.8 °F 57.2 °F 88% 30.03 in 9.0 mi SW 8.1 mph - N/A   Overcast
5:53 AM 61.0 °F 57.9 °F 90% 30.04 in 10.0 mi SSW 3.5 mph - N/A   Overcast
6:53 AM 60.1 °F 57.9 °F 93% 30.06 in 9.0 mi WSW 3.5 mph - N/A   Overcast
7:53 AM 61.0 °F 57.9 °F 90% 30.07 in 7.0 mi SSW 3.5 mph - N/A   Overcast
8:53 AM 61.0 °F 57.9 °F 90% 30.09 in 9.0 mi SW 8.1 mph - N/A   Overcast
9:53 AM 62.1 °F 57.9 °F 86% 30.10 in 10.0 mi SW 5.8 mph - N/A   Overcast
10:29 AM 64.4 °F 59.0 °F 83% 30.11 in 10.0 mi South 6.9 mph - N/A   Mostly Cloudy
10:53 AM 64.0 °F 59.0 °F 84% 30.11 in 10.0 mi SSW 5.8 mph - N/A   Mostly Cloudy
11:13 AM 66.2 °F 60.8 °F 83% 30.12 in 10.0 mi SW 5.8 mph - N/A   Scattered Clouds
11:30 AM 66.2 °F 60.8 °F 83% 30.12 in 10.0 mi West 6.9 mph - N/A   Mostly Cloudy
11:40 AM 66.2 °F 59.0 °F 78% 30.12 in 10.0 mi SSW 4.6 mph - N/A   Mostly Cloudy
11:53 AM 68.0 °F 60.1 °F 76% 30.11 in 10.0 mi Variable 3.5 mph - N/A   Scattered Clouds
12:53 PM 72.0 °F 61.0 °F 68% 30.10 in 10.0 mi Variable 3.5 mph - N/A   Partly Cloudy
1:53 PM 75.0 °F 61.0 °F 62% 30.07 in 10.0 mi SSW 9.2 mph - N/A   Clear
2:53 PM 77.0 °F 61.0 °F 58% 30.05 in 10.0 mi Variable 4.6 mph - N/A   Clear
3:53 PM 78.1 °F 61.0 °F 56% 30.04 in 10.0 mi WSW 11.5 mph - N/A   Clear
4:53 PM 79.0 °F 62.1 °F 56% 30.03 in 10.0 mi SSW 9.2 mph - N/A   Clear
5:53 PM 78.1 °F 63.0 °F 60% 30.03 in 10.0 mi SSW 10.4 mph - N/A   Scattered Clouds
6:53 PM 75.9 °F 62.1 °F 62% 30.04 in 10.0 mi SSW 4.6 mph - N/A   Mostly Cloudy
7:53 PM 73.0 °F 63.0 °F 71% 30.04 in 10.0 mi South 4.6 mph - N/A   Scattered Clouds
8:53 PM 66.9 °F 62.1 °F 84% 30.06 in 10.0 mi Calm Calm - N/A   Clear
9:53 PM 66.9 °F 63.0 °F 87% 30.08 in 10.0 mi SE 3.5 mph - N/A   Clear
10:39 PM 68.0 °F 64.4 °F 88% 30.11 in 10.0 mi SE 3.5 mph - N/A   Mostly Cloudy
10:53 PM 68.0 °F 64.0 °F 87% 30.10 in 9.0 mi SE 4.6 mph - N/A   Overcast
11:43 PM 68.0 °F 64.4 °F 88% 30.11 in 7.0 mi SSE 6.9 mph - N/A   Scattered Clouds
11:53 PM 68.0 °F 64.9 °F 90% 30.11 in 7.0 mi SSE 5.8 mph - N/A   Scattered Clouds